TimeCST,TemperatureF,Dew PointF,Humidity,Sea Level PressureIn,VisibilityMPH,Wind Direction,Wind SpeedMPH,Gust SpeedMPH,PrecipitationIn,Events,Conditions,WindDirDegrees,DateUTC
12:53 AM,19.9,15.1,81,30.42,9.0,Calm,Calm,-,N/A,,Clear,0,2012-12-30 06:53:00
1:53 AM,19.0,16.0,88,30.42,8.0,Calm,Calm,-,N/A,,Clear,0,2012-12-30 07:53:00
2:53 AM,17.1,15.1,92,30.44,8.0,SSW,4.6,-,N/A,,Clear,200,2012-12-30 08:53:00
3:53 AM,18.0,15.1,88,30.43,8.0,Calm,Calm,-,N/A,,Clear,0,2012-12-30 09:53:00
4:53 AM,17.1,14.0,88,30.44,9.0,SSW,4.6,-,N/A,,Clear,200,2012-12-30 10:53:00
5:53 AM,17.1,15.1,92,30.43,8.0,Calm,Calm,-,N/A,,Clear,0,2012-12-30 11:53:00
6:53 AM,16.0,14.0,92,30.43,8.0,Calm,Calm,-,N/A,,Clear,0,2012-12-30 12:53:00
7:53 AM,19.0,16.0,88,30.43,6.0,Calm,Calm,-,N/A,,Clear,0,2012-12-30 13:53:00
8:53 AM,24.1,19.9,84,30.45,9.0,South,3.5,-,N/A,,Clear,190,2012-12-30 14:53:00
9:53 AM,28.0,21.9,78,30.45,10.0,South,4.6,-,N/A,,Clear,170,2012-12-30 15:53:00
10:53 AM,33.1,24.1,70,30.43,10.0,South,8.1,-,N/A,,Clear,180,2012-12-30 16:53:00
11:53 AM,37.0,23.0,57,30.39,10.0,South,10.4,-,N/A,,Clear,180,2012-12-30 17:53:00
12:53 PM,39.9,21.0,47,30.38,10.0,SSW,15.0,-,N/A,,Clear,200,2012-12-30 18:53:00
1:53 PM,39.0,18.0,43,30.34,10.0,South,16.1,-,N/A,,Clear,190,2012-12-30 19:53:00
2:53 PM,39.0,19.9,46,30.34,10.0,South,10.4,-,N/A,,Clear,180,2012-12-30 20:53:00
3:53 PM,37.9,21.0,51,30.34,10.0,South,8.1,-,N/A,,Clear,180,2012-12-30 21:53:00
4:53 PM,37.0,19.0,48,30.32,10.0,South,9.2,-,N/A,,Clear,190,2012-12-30 22:53:00
5:53 PM,32.0,21.0,64,30.30,10.0,SSE,6.9,-,N/A,,Clear,160,2012-12-30 23:53:00
6:53 PM,33.1,21.9,64,30.29,10.0,SSE,8.1,-,N/A,,Clear,160,2012-12-31 00:53:00
7:53 PM,32.0,21.9,66,30.27,10.0,SSE,8.1,-,N/A,,Clear,160,2012-12-31 01:53:00
8:53 PM,33.1,21.0,61,30.26,10.0,South,8.1,-,N/A,,Clear,170,2012-12-31 02:53:00
9:53 PM,34.0,21.0,59,30.25,10.0,South,12.7,-,N/A,,Clear,180,2012-12-31 03:53:00
10:53 PM,35.1,23.0,61,30.23,10.0,South,12.7,-,N/A,,Clear,180,2012-12-31 04:53:00
11:53 PM,36.0,23.0,59,30.22,10.0,South,12.7,-,N/A,,Clear,190,2012-12-31 05:53:00